Wind_Speed
42 50 55 58 62 58 57 57 59 57 60 61 60 62 63 65 68 57 55 55 51 47 44 41 40 41 40 36 33 33 35 34 31 31 27 27 33 37 38 43 47 47 47 44
41 49 50 52 57 49 49 52 42 51 61 61 59 61 65 66 66 79 55 54 52 51 45 42 41 39 37 34 35 36 36 36 36 37 35 37 41 42 46 49 49 50 49 48
39 45 50 53 57 58 57 47 51 56 57 56 57 59 55 66 66 63 49 55 61 53 49 42 48 50 47 44 42 42 38 38 37 39 41 44 47 49 51 50 50 50 51 50
39 47 50 50 52 53 52 53 50 52 54 54 59 55 59 58 62 63 63 65 56 50 52 45 48 48 46 45 47 50 49 46 44 44 45 47 48 49 50 51 50 48 49 48
39 45 45 48 47 45 38 49 51 51 49 39 56 40 50 55 57 59 61 61 60 58 52 48 48 49 46 46 47 47 44 44 46 47 49 50 49 50 50 50 49 48 48 49
39 39 33 49 44 40 44 42 43 46 47 40 40 53 35 54 53 50 53 58 59 58 55 52 52 49 49 50 50 49 48 48 48 48 49 49 48 48 49 49 50 51 51 52
39 40 29 33 44 41 38 36 38 35 34 46 51 51 36 41 53 53 50 49 51 51 52 53 52 51 50 50 50 47 46 46 46 46 46 47 48 47 48 50 51 50 49 51
28 31 32 30 29 32 35 36 31 38 42 32 42 48 50 52 54 52 53 52 53 50 48 48 47 48 49 49 47 45 44 44 44 43 43 44 45 46 47 49 48 49 50 51
22 27 27 27 29 30 34 42 30 27 27 28 44 47 49 51 53 50 50 51 51 49 49 50 50 48 47 47 47 46 46 45 43 42 42 41 42 46 48 49 49 49 53 56
23 28 26 27 27 29 31 39 40 32 28 27 25 44 41 52 51 50 50 49 49 49 49 48 48 46 45 45 42 44 44 41 37 38 39 43 46 47 48 47 51 53 46 42
25 24 28 27 29 27 31 34 31 23 18 19 20 29 34 45 44 46 48 48 48 47 48 46 46 45 44 41 39 40 37 34 36 39 41 41 43 44 48 49 46 41 40 42
26 27 25 25 24 25 25 25 29 31 31 19 17 18 30 35 40 45 45 45 44 45 46 46 44 42 36 35 37 36 36 37 37 38 39 43 44 43 41 39 40 41 43 46
22 23 24 25 25 26 26 23 22 23 24 24 14 14 16 22 29 30 31 38 43 46 44 39 38 37 35 35 38 37 34 33 32 32 37 40 42 40 38 38 38 42 42 42
23 24 18 17 19 19 22 23 24 21 20 16 14 12 11 15 13 15 18 20 23 29 33 35 36 36 36 37 37 32 31 32 34 37 36 37 40 40 38 37 43 43 43 43
23 20 17 17 20 21 21 22 21 18 21 19 12 13 12 14 20 18 18 23 27 30 32 31 32 38 37 35 32 30 32 31 34 35 40 42 42 39 39 40 44 44 44 44
21 22 19 21 20 16 15 16 17 19 20 18 14 14 19 18 22 23 20 27 33 38 38 36 36 36 31 29 29 31 32 34 39 42 43 43 40 41 41 45 44 44 45 44
23 24 20 16 16 14 13 13 13 14 15 15 10 14 16 18 20 20 24 32 36 31 37 36 36 28 29 29 32 34 39 40 41 43 43 43 41 40 40 44 45 46 44 43
24 22 21 16 18 17 18 14 16 16 15 14 15 13 12 14 17 17 20 12 17 32 40 41 38 34 33 37 36 38 40 40 42 43 37 37 38 39 41 43 45 42 42 44
26 25 23 20 18 17 16 12 11 10 12 13 13 14 13 14 16 20 11 11 6 23 22 23 25 28 30 32 35 37 33 36 41 41 39 41 45 43 43 43 41 41 42 45
28 27 26 24 22 17 14 15 11 13 11 7 10 13 17 17 17 17 13 11 11 11 16 19 18 21 22 28 29 32 33 31 34 35 38 39 42 42 41 41 41 39 42 45
28 27 28 25 24 20 19 16 14 14 11 11 11 12 11 11 12 13 12 12 12 16 19 20 18 19 21 25 27 27 27 28 31 34 37 38 40 41 40 37 38 39 43 44
28 27 26 28 27 25 21 20 18 14 16 16 16 15 14 12 9 11 14 15 14 13 15 16 17 19 21 23 25 27 29 32 34 35 37 37 36 36 36 37 38 40 40 43
28 28 26 28 26 21 19 20 21 24 23 20 19 17 16 14 12 12 16 17 18 16 15 17 18 21 23 26 29 31 31 31 30 30 31 33 34 34 35 36 36 37 40 41
28 25 25 27 27 26 24 23 23 23 22 22 22 21 19 18 19 18 18 18 17 18 19 20 22 25 26 26 26 26 26 28 30 31 31 32 33 33 34 34 33 36 39 37
33 31 27 26 26 25 23 21 20 20 24 25 26 25 22 20 21 22 21 21 20 19 20 20 21 22 22 22 23 24 27 29 30 30 31 32 31 31 32 33 33 36 37 30
28 35 34 31 26 25 22 19 20 20 19 18 19 21 19 17 19 20 19 19 19 20 19 20 21 21 23 24 25 25 26 28 28 29 29 30 30 31 32 33 33 34 32 26
Wind_Direction
202 198 202 202 202 200 205 206 209 208 209 209 209 211 214 216 220 218 216 217 220 220 222 222 224 229 236 241 245 246 250 255 254 256 261 263 271 273 273 280 284 288 288 289
198 195 201 197 196 192 203 201 202 203 208 207 208 212 214 215 218 220 213 214 219 226 228 232 239 239 241 242 246 251 251 250 247 257 261 264 269 271 273 277 279 282 285 285
195 194 197 197 195 195 196 197 201 206 208 206 207 213 215 218 218 220 213 223 225 225 228 233 241 238 243 245 247 248 247 250 251 255 259 262 266 270 274 276 278 281 283 284
190 203 195 197 195 198 201 196 197 203 205 206 209 211 216 220 220 225 226 228 230 238 244 247 244 244 248 247 250 253 258 259 259 262 267 268 271 276 276 277 279 280 282 284
197 200 194 193 197 196 203 196 195 200 202 200 212 203 224 219 223 222 227 230 234 239 240 240 243 248 254 257 259 265 266 267 269 270 274 276 276 279 280 281 283 285 286 288
188 195 197 182 195 195 201 193 196 202 200 201 212 210 209 220 226 228 226 230 234 238 242 245 249 253 256 259 262 264 267 269 270 271 273 275 278 279 281 283 287 289 292 290
187 180 194 183 189 193 183 189 194 196 201 207 211 212 203 226 223 226 229 229 233 235 239 243 248 252 255 257 259 262 265 268 270 271 274 277 279 281 284 287 288 289 287 286
168 173 184 197 187 196 184 178 193 202 202 201 211 216 218 226 227 224 228 231 233 235 237 240 242 246 249 253 256 259 261 263 267 271 274 277 280 282 282 283 283 284 284 282
158 173 180 179 185 186 185 175 187 177 200 204 217 218 219 223 230 231 232 236 237 239 241 244 245 247 250 254 256 259 260 262 266 269 272 272 270 274 278 279 280 281 281 282
166 167 169 174 177 183 191 185 193 179 183 195 218 219 218 226 230 232 234 237 242 243 244 247 250 251 254 256 260 261 263 266 265 261 262 264 268 271 275 280 282 285 288 290
163 170 171 177 182 187 183 188 194 193 185 200 213 225 229 234 233 236 240 241 243 246 249 249 250 251 254 256 256 258 262 260 259 262 265 270 275 276 280 282 287 292 288 285
171 172 179 172 182 181 192 194 192 197 197 190 193 218 233 230 237 237 237 240 245 247 249 252 254 254 255 250 254 259 260 261 263 266 269 271 272 278 282 288 283 285 285 287
166 167 171 173 177 181 183 187 192 189 195 205 208 217 234 238 242 246 246 246 247 250 252 251 250 250 244 246 248 252 254 253 258 261 261 265 273 277 280 278 281 286 287 288
167 167 176 181 178 179 174 170 161 173 184 172 173 204 190 212 215 229 235 238 239 240 240 240 241 245 242 242 242 246 251 253 253 257 261 267 272 279 279 281 287 287 290 292
176 172 157 164 164 161 156 160 165 163 169 162 177 184 204 204 209 214 225 232 234 230 231 235 236 237 239 240 241 248 250 250 252 257 262 268 273 279 274 283 288 289 292 293
179 165 160 165 169 164 173 170 160 159 174 181 191 207 203 202 202 213 215 223 226 225 223 228 231 235 237 239 240 242 253 260 257 260 268 275 276 278 276 280 286 292 294 296
182 170 166 177 173 165 179 181 180 182 179 183 204 220 216 215 222 228 232 243 236 233 228 228 235 226 239 244 243 249 257 261 261 263 275 275 276 276 278 284 289 292 293 297
190 190 182 185 184 169 200 185 187 191 191 192 202 214 201 215 224 239 253 207 235 225 222 227 228 226 228 236 246 254 262 262 264 264 271 274 275 276 282 288 289 290 294 295
197 202 202 195 190 195 197 188 199 201 185 191 209 212 210 217 230 242 258 198 199 186 190 202 207 216 226 235 243 247 260 264 263 265 273 270 271 279 286 287 289 291 294 300
205 209 210 207 207 204 210 200 196 184 184 193 223 224 227 236 237 233 225 222 228 203 196 201 217 225 237 251 244 263 273 274 270 264 270 276 278 284 287 287 288 291 297 303
209 211 216 216 219 221 208 212 209 193 202 213 212 209 219 229 229 229 225 211 215 215 218 225 244 255 252 258 262 266 271 275 271 271 277 282 285 284 282 286 288 293 300 304
217 214 212 217 217 222 204 211 218 220 225 221 220 220 228 240 246 247 246 237 228 227 231 236 246 254 260 264 269 274 278 279 279 279 280 281 281 284 287 289 293 299 302 305
219 220 215 217 219 217 211 222 228 228 231 223 224 229 239 241 245 259 253 246 238 242 245 252 260 266 269 270 271 272 273 273 275 280 284 287 288 290 291 293 296 299 303 306
221 219 220 218 217 224 225 216 224 224 228 228 227 235 249 253 250 244 241 239 245 249 253 256 260 263 264 266 271 278 283 286 286 286 287 289 292 294 295 295 298 302 303 304
222 222 217 212 211 215 220 225 231 232 236 238 240 249 254 250 236 233 238 236 240 245 255 263 267 269 273 278 283 287 287 288 290 292 293 294 296 296 296 297 299 299 303 298
222 220 215 212 215 218 228 228 230 232 237 243 250 250 241 232 228 230 233 239 248 257 266 277 279 284 288 289 289 290 294 296 299 302 302 300 296 294 292 293 295 297 300 287
Height
5646 5653 5660 5675 5690 5708 5722 5733 5742 5755 5759 5769 5778 5787 5796 5802 5811 5819 5826 5833 5841 5848 5853 5859 5864 5868 5872 5877 5879 5882 5884 5886 5888 5889 5889 5889 5889 5889 5888 5887 5885 5883 5880 5877
5642 5650 5663 5675 5687 5697 5708 5721 5733 5742 5749 5761 5770 5776 5784 5793 5801 5809 5817 5825 5833 5840 5848 5852 5857 5862 5867 5871 5874 5876 5879 5880 5882 5882 5882 5882 5881 5882 5879 5880 5877 5875 5872 5869
5644 5652 5660 5671 5680 5689 5700 5713 5724 5738 5745 5758 5765 5770 5774 5782 5795 5802 5806 5816 5823 5833 5840 5845 5850 5854 5859 5863 5866 5868 5870 5872 5873 5874 5874 5874 5874 5873 5871 5871 5869 5866 5863 5860
5641 5645 5656 5669 5678 5689 5699 5710 5720 5731 5741 5751 5757 5766 5771 5778 5789 5797 5805 5812 5819 5824 5829 5836 5840 5845 5849 5853 5856 5858 5860 5861 5863 5865 5865 5864 5864 5863 5862 5861 5859 5856 5852 5850
5641 5647 5655 5668 5678 5688 5696 5706 5717 5728 5741 5749 5752 5764 5769 5773 5777 5790 5799 5805 5811 5818 5824 5828 5831 5836 5839 5842 5845 5848 5850 5852 5853 5854 5855 5854 5853 5852 5850 5848 5846 5844 5842 5840
5638 5648 5651 5664 5673 5683 5695 5708 5717 5726 5733 5741 5748 5759 5767 5767 5777 5784 5791 5797 5804 5810 5815 5819 5821 5828 5831 5834 5836 5838 5840 5842 5843 5843 5843 5843 5842 5841 5839 5837 5835 5834 5832 5830
5639 5646 5652 5658 5669 5678 5692 5704 5713 5722 5728 5739 5746 5751 5765 5768 5770 5776 5783 5790 5795 5801 5807 5811 5815 5819 5822 5824 5826 5829 5831 5832 5832 5833 5834 5833 5832 5831 5829 5828 5826 5825 5821 5819
5641 5649 5655 5662 5674 5687 5695 5706 5716 5721 5728 5737 5741 5748 5756 5758 5764 5771 5775 5781 5785 5793 5799 5804 5808 5810 5812 5815 5817 5820 5821 5822 5823 5824 5824 5824 5823 5822 5821 5819 5817 5815 5812 5809
5646 5653 5659 5666 5673 5683 5692 5700 5712 5720 5728 5736 5738 5742 5749 5753 5757 5764 5770 5774 5779 5784 5790 5794 5798 5802 5804 5807 5808 5810 5811 5812 5814 5816 5815 5815 5814 5813 5811 5810 5809 5807 5804 5800
5648 5655 5661 5668 5675 5683 5690 5701 5705 5712 5721 5729 5731 5736 5743 5745 5751 5757 5762 5766 5770 5776 5781 5785 5788 5792 5794 5796 5798 5800 5801 5804 5805 5805 5805 5806 5805 5804 5803 5802 5800 5797 5793 5789
5651 5658 5662 5667 5673 5682 5690 5696 5705 5714 5721 5726 5730 5734 5735 5739 5746 5751 5754 5759 5764 5768 5771 5775 5779 5782 5784 5786 5787 5789 5792 5795 5795 5796 5797 5798 5797 5795 5794 5792 5790 5787 5784 5779
5652 5657 5664 5669 5676 5683 5690 5696 5701 5706 5714 5722 5727 5732 5729 5734 5738 5744 5747 5751 5755 5760 5763 5766 5769 5772 5776 5778 5779 5782 5783 5785 5786 5788 5789 5787 5786 5785 5784 5783 5780 5776 5774 5770
5656 5661 5665 5670 5677 5681 5687 5693 5699 5705 5710 5715 5722 5728 5725 5729 5733 5736 5740 5745 5748 5752 5755 5758 5760 5762 5765 5770 5771 5773 5776 5778 5780 5780 5779 5779 5778 5777 5776 5774 5772 5768 5764 5760
5657 5663 5669 5676 5680 5685 5688 5692 5697 5702 5707 5714 5720 5724 5725 5727 5729 5732 5734 5738 5742 5745 5748 5750 5753 5756 5759 5761 5763 5767 5770 5771 5772 5771 5772 5771 5769 5769 5767 5765 5763 5759 5755 5751
5660 5665 5671 5676 5680 5685 5689 5694 5697 5702 5707 5715 5720 5722 5724 5724 5726 5728 5730 5733 5735 5739 5740 5744 5747 5748 5752 5755 5759 5762 5764 5763 5764 5764 5763 5761 5761 5760 5757 5755 5753 5749 5744 5740
5661 5665 5671 5676 5680 5686 5691 5695 5698 5702 5707 5711 5715 5718 5719 5721 5722 5724 5725 5726 5727 5729 5732 5735 5738 5742 5747 5751 5753 5755 5755 5756 5755 5755 5755 5754 5752 5751 5748 5746 5743 5739 5735 5731
5663 5667 5673 5679 5683 5688 5694 5694 5697 5702 5705 5709 5714 5716 5716 5717 5719 5719 5719 5718 5719 5722 5726 5731 5735 5739 5742 5745 5747 5748 5748 5747 5747 5747 5746 5744 5743 5741 5739 5736 5733 5729 5726 5722
5664 5669 5674 5680 5683 5690 5691 5693 5696 5699 5702 5705 5709 5711 5711 5713 5714 5714 5713 5709 5708 5710 5717 5723 5729 5733 5736 5737 5740 5741 5740 5739 5738 5738 5737 5735 5733 5731 5729 5727 5724 5721 5717 5713
5665 5669 5673 5677 5683 5687 5690 5692 5695 5698 5701 5703 5704 5706 5707 5708 5709 5708 5707 5706 5706 5709 5714 5719 5724 5727 5729 5731 5733 5733 5731 5730 5729 5729 5727 5726 5725 5723 5720 5718 5715 5712 5707 5702
5664 5668 5673 5676 5680 5685 5689 5691 5694 5696 5699 5699 5700 5702 5704 5705 5705 5706 5707 5707 5708 5710 5714 5718 5720 5720 5721 5722 5723 5724 5723 5722 5720 5719 5718 5717 5715 5713 5711 5709 5706 5702 5697 5692
5660 5665 5668 5674 5677 5683 5685 5689 5692 5694 5698 5697 5698 5700 5701 5702 5703 5704 5706 5707 5708 5710 5712 5714 5715 5715 5716 5717 5718 5717 5715 5713 5712 5711 5710 5708 5706 5704 5702 5699 5696 5692 5687 5680
5658 5662 5666 5670 5673 5678 5682 5686 5689 5692 5692 5693 5695 5697 5698 5699 5700 5701 5703 5704 5706 5707 5708 5710 5711 5712 5712 5712 5711 5710 5708 5707 5705 5704 5701 5699 5697 5695 5692 5689 5685 5681 5675 5669
5654 5658 5663 5667 5671 5674 5679 5683 5684 5686 5687 5689 5691 5692 5694 5695 5696 5697 5699 5700 5702 5703 5704 5705 5705 5705 5705 5705 5704 5703 5702 5700 5697 5695 5693 5691 5688 5686 5683 5679 5675 5670 5664 5658
5649 5653 5657 5662 5665 5669 5673 5676 5677 5680 5682 5684 5687 5689 5690 5691 5692 5694 5695 5696 5697 5698 5699 5701 5701 5701 5701 5699 5698 5696 5693 5691 5689 5687 5685 5682 5679 5676 5673 5669 5665 5659 5654 5649
5641 5647 5650 5655 5659 5663 5666 5669 5673 5675 5677 5679 5681 5682 5683 5685 5687 5689 5691 5693 5694 5695 5696 5696 5695 5694 5693 5691 5689 5687 5685 5683 5681 5679 5676 5673 5670 5666 5662 5658 5654 5650 5644 5640
5633 5637 5644 5648 5654 5657 5661 5664 5667 5669 5671 5673 5674 5674 5676 5678 5681 5684 5686 5687 5688 5689 5689 5689 5687 5686 5685 5683 5682 5679 5677 5674 5671 5668 5665 5662 5659 5655 5652 5648 5644 5640 5635 5632